This demonstration page uses our WeatherBlox Daily Observations layout. Learn more.

Left ArrowRight Arrow

Hourly Observations for April 25, 2015

Temp ( °F °C ) Dew Point ( °F °C ) Humidity (%) Winds ( mph kmh ) Pressure ( in mb ) Visibility ( mi km ) Precip ( " mm )
12:51 am 00:51 Clear 56 13.3 38 3.3 51 51 S 3 6 29.84 1010 10 16 0.00 0.00
1:51 am 01:51 Clear 51 10.6 36 2.2 56 56 ESE 6 9 29.84 1011 10 16 0.00 0.00
2:51 am 02:51 Clear 49 9.4 35 1.7 59 59 SE 5 7 29.84 1011 10 16 0.00 0.00
3:51 am 03:51 Clear 48 8.9 35 1.7 61 61 E 3 6 29.84 1011 10 16 0.00 0.00
4:51 am 04:51 Clear 46 7.8 34 1.1 63 63 E 5 7 29.85 1011 10 16 0.00 0.00
5:51 am 05:51 Sunny 47 8.3 35 1.7 63 63 Calm 29.86 1011 10 16 0.00 0.00
6:51 am 06:51 Sunny 51 10.6 35 1.7 54 54 Calm 29.87 1012 10 16 0.00 0.00
7:51 am 07:51 Sunny 59 15 37 2.8 44 44 Calm 29.86 1011 10 16 0.00 0.00
8:51 am 08:51 Sunny 63 17.2 38 3.3 40 40 WSW 6 9 29.85 1011 10 16 0.00 0.00
9:51 am 09:51 Sunny 65 18.3 38 3.3 37 37 SSW 5 7 29.85 1011 10 16 0.00 0.00
10:51 am 10:51 Sunny 68 20 36 2.2 31 31 Calm 29.83 1010 10 16 0.00 0.00
11:51 am 11:51 Sunny 72 22.2 35 1.7 26 26 VRB 5 7 29.79 1009 10 16 0.00 0.00
12:51 pm 12:51 Sunny 73 22.8 34 1.1 24 24 NW 6 9 29.75 1008 10 16 0.00 0.00
1:51 pm 13:51 Partly Cloudy 75 23.9 33 0.6 22 22 VRB 6 9 29.73 1007 10 16 0.00 0.00
2:51 pm 14:51 Sunny 77 25 33 0.6 20 20 VRB 6 9 29.70 1006 10 16 0.00 0.00
3:51 pm 15:51 Partly Cloudy 79 26.1 31 -0.6 17 17 VRB 7 11 29.66 1004 10 16 0.00 0.00
4:51 pm 16:51 Mostly Cloudy 76 24.4 28 -2.2 17 17 W 16 26 29.65 1004 10 16 0.00 0.00
5:51 pm 17:51 Partly Cloudy 75 23.9 29 -1.7 18 18 W 21 33 29.64 1004 10 16 0.00 0.00
6:51 pm 18:51 Mostly Sunny 73 22.8 32 0 22 22 WNW 13 20 29.63 1003 10 16 0.00 0.00
7:51 pm 19:51 Partly Cloudy 71 21.7 29 -1.7 21 21 NW 15 24 29.63 1004 10 16 0.00 0.00
8:51 pm 20:51 Partly Cloudy 69 20.6 31 -0.6 24 24 NW 22 35 29.63 1003 10 16 0.00 0.00
9:51 pm 21:51 Mostly Cloudy 67 19.4 34 1.1 30 30 NW 23 37 29.65 1004 10 16 0.00 0.00
10:51 pm 22:51 Cloudy 64 17.8 38 3.3 38 38 NW 15 24 29.65 1004 10 16 0.00 0.03
11:51 pm 23:51 Cloudy 63 17.2 37 2.8 38 38 NNW 14 22 29.65 1004 10 16 0.00 0.00

Powered by AerisWeather